Weather History for Sparta, IL

Change the Weather History Date:

Sunday, July 21, 2013

  Actual Average (KBLV) Record (KBLV)
Temperature  
Mean Temperature 76 °F -  
Max Temperature 82 °F 89 °F 101 °F (1983)
Min Temperature 71 °F 66 °F 47 °F (1970)
Cooling Degree Days 12    
Growing Degree Days 26 (Base 50)    
Moisture  
Dew Point 69 °F    
Average Humidity 81    
Maximum Humidity 94    
Minimum Humidity 66    
Precipitation  
Precipitation 0.18 in - - ()
Sea Level Pressure  
Sea Level Pressure 29.92 in    
Wind  
Wind Speed 2 mph (SSE)    
Max Wind Speed 8 mph    
Max Gust Speed 21 mph    
Visibility 8 miles    
Events Fog , Rain , Thunderstorm    
Averages and records for this station are not official NWS values.
T = Trace of Precipitation, MM = Missing Value Source: NWS Daily Summary

Daily Weather History Graph

Daily Weather History Graph

Search for Another Location

Airport:

Trip Planner

Search our weather history database for the weather conditions in past years. The results will help you decide how hot, cold, wet, or windy it might be!

Date:

Astronomy

Jul. 21, 2013 Rise Set
Actual Time 5:52 AM CDT 8:17 PM CDT
Civil Twilight 5:22 AM CDT 8:47 PM CDT
Nautical Twilight 4:45 AM CDT 9:24 PM CDT
Astronomical Twilight 4:03 AM CDT 10:05 PM CDT
Moon 7:16 PM CDT (7/21) 4:38 AM CDT (7/21)
Length of Visible Light 15h 25m
Length of Day
14h 24m
Waxing Gibbous, 98% of the Moon is Illuminated
Jul 21
Waxing Gibbous
Jul 22
Full
Jul 29
Last Quarter
Aug 6
New
Aug 14
First Quarter

Hourly Weather History & Observations

Time (CDT) Temp. Heat Index Dew Point Humidity Pressure Visibility Wind Dir Wind Speed Gust Speed Precip Events Conditions
12:15 AM 71.6 °F - 66.2 °F 83% 29.93 in 10.0 mi Calm Calm - N/A   Scattered Clouds
12:35 AM 71.6 °F - 66.2 °F 83% 29.94 in 10.0 mi Calm Calm - N/A   Clear
12:55 AM 71.6 °F - 66.2 °F 83% 29.94 in 7.0 mi Calm Calm - N/A   Scattered Clouds
1:15 AM 71.6 °F - 66.2 °F 83% 29.94 in 7.0 mi Calm Calm - N/A   Mostly Cloudy
1:35 AM 71.6 °F - 66.2 °F 83% 29.94 in 5.0 mi Calm Calm - N/A   Scattered Clouds
1:55 AM 71.6 °F - 66.2 °F 83% 29.94 in 4.0 mi Calm Calm - N/A   Scattered Clouds
2:15 AM 71.6 °F - 66.2 °F 83% 29.94 in 5.0 mi Calm Calm - N/A   Scattered Clouds
2:35 AM 71.6 °F - 66.2 °F 83% 29.93 in 3.0 mi Calm Calm - N/A   Mostly Cloudy
2:55 AM 71.6 °F - 66.2 °F 83% 29.93 in 5.0 mi Calm Calm - N/A   Scattered Clouds
3:15 AM 71.6 °F - 66.2 °F 83% 29.93 in 1.8 mi WNW 3.5 mph - N/A   Overcast
3:35 AM 71.6 °F - 66.2 °F 83% 29.93 in 0.8 mi Calm Calm - N/A   Overcast
3:55 AM 71.6 °F - 66.2 °F 83% 29.93 in 2.5 mi Calm Calm - N/A   Overcast
4:15 AM 71.6 °F - 66.2 °F 83% 29.93 in 2.5 mi Calm Calm - N/A   Scattered Clouds
4:35 AM 71.6 °F - 66.2 °F 83% 29.93 in 3.0 mi Calm Calm - N/A   Clear
4:55 AM 71.6 °F - 66.2 °F 83% 29.93 in 3.0 mi Calm Calm - N/A   Clear
5:15 AM 71.6 °F - 66.2 °F 83% 29.94 in 2.5 mi Calm Calm - N/A   Scattered Clouds
5:35 AM 71.6 °F - 66.2 °F 83% 29.94 in 3.0 mi Calm Calm - N/A   Scattered Clouds
5:55 AM 71.6 °F - 66.2 °F 83% 29.94 in 2.0 mi ESE 4.6 mph - N/A   Mostly Cloudy
6:15 AM 71.6 °F - 66.2 °F 83% 29.95 in 0.5 mi Calm Calm - N/A Fog Fog
6:35 AM 71.6 °F - 66.2 °F 83% 29.94 in 0.5 mi Calm Calm - N/A Fog Fog
6:55 AM 71.6 °F - 66.2 °F 83% 29.94 in 1.8 mi SE 5.8 mph - N/A   Overcast
7:15 AM 71.6 °F - 68.0 °F 88% 29.95 in 3.0 mi ESE 3.5 mph - N/A   Overcast
7:35 AM 71.6 °F - 68.0 °F 88% 29.96 in 5.0 mi ESE 3.5 mph - N/A   Mostly Cloudy
7:55 AM 71.6 °F - 68.0 °F 88% 29.96 in 4.0 mi ESE 3.5 mph - N/A   Overcast
8:15 AM 71.6 °F - 68.0 °F 88% 29.96 in 3.0 mi ESE 5.8 mph - N/A   Overcast
8:35 AM 71.6 °F - 69.8 °F 94% 29.96 in 7.0 mi SE 5.8 mph - N/A   Overcast
8:55 AM 73.4 °F - 69.8 °F 88% 29.96 in 7.0 mi SE 5.8 mph - N/A   Mostly Cloudy
9:15 AM 73.4 °F - 69.8 °F 88% 29.96 in 10.0 mi SSE 4.6 mph - N/A   Scattered Clouds
9:35 AM 73.4 °F - 69.8 °F 88% 29.96 in 10.0 mi SE 3.5 mph - N/A   Mostly Cloudy
9:55 AM 75.2 °F - 69.8 °F 83% 29.96 in 10.0 mi SE 3.5 mph - N/A   Mostly Cloudy
10:15 AM 75.2 °F - 69.8 °F 83% 29.96 in 10.0 mi SE 3.5 mph - N/A   Scattered Clouds
10:35 AM 75.2 °F - 69.8 °F 83% 29.96 in 10.0 mi SE 4.6 mph - N/A   Scattered Clouds
10:55 AM 75.2 °F - 69.8 °F 83% 29.97 in 10.0 mi SSE 3.5 mph - N/A   Mostly Cloudy
11:15 AM 75.2 °F - 69.8 °F 83% 29.97 in 10.0 mi SE 4.6 mph - N/A   Scattered Clouds
11:35 AM 77.0 °F - 71.6 °F 83% 29.97 in 10.0 mi SE 6.9 mph - N/A   Scattered Clouds
11:55 AM 77.0 °F - 71.6 °F 83% 29.97 in 10.0 mi South 4.6 mph - N/A   Scattered Clouds
12:15 PM 78.8 °F - 71.6 °F 78% 29.96 in 10.0 mi South 6.9 mph - N/A   Scattered Clouds
1:15 PM 80.6 °F 84.6 °F 71.6 °F 74% 29.94 in 10.0 mi SSW 3.5 mph - N/A   Clear
1:35 PM 80.6 °F 85.4 °F 73.4 °F 79% 29.94 in 10.0 mi South 4.6 mph - N/A   Scattered Clouds
1:55 PM 82.4 °F 87.2 °F 71.6 °F 70% 29.93 in 10.0 mi SSW 4.6 mph - N/A   Scattered Clouds
2:15 PM 80.6 °F 84.6 °F 71.6 °F 74% 29.92 in 10.0 mi South 4.6 mph - N/A   Mostly Cloudy
2:35 PM 82.4 °F 87.2 °F 71.6 °F 70% 29.91 in 10.0 mi ESE 3.5 mph - N/A   Scattered Clouds
2:55 PM 80.6 °F 84.6 °F 71.6 °F 74% 29.90 in 10.0 mi Calm Calm - N/A   Mostly Cloudy
3:15 PM 80.6 °F 84.6 °F 71.6 °F 74% 29.90 in 2.5 mi Calm Calm - N/A   Haze
3:35 PM 82.4 °F 86.3 °F 69.8 °F 66% 29.90 in 10.0 mi Calm Calm - N/A   Clear
3:55 PM 82.4 °F 87.2 °F 71.6 °F 70% 29.90 in 10.0 mi Calm Calm - N/A   Clear
4:15 PM 82.4 °F 86.3 °F 69.8 °F 66% 29.90 in 10.0 mi Calm Calm - N/A   Scattered Clouds
4:35 PM 82.4 °F 87.2 °F 71.6 °F 70% 29.90 in 10.0 mi Calm Calm - N/A   Mostly Cloudy
4:55 PM 82.4 °F 87.2 °F 71.6 °F 70% 29.90 in 10.0 mi Calm Calm - N/A   Scattered Clouds
5:15 PM 80.6 °F 84.6 °F 71.6 °F 74% 29.89 in 10.0 mi Calm Calm - N/A   Clear
5:35 PM 82.4 °F 87.2 °F 71.6 °F 70% 29.88 in 10.0 mi Calm Calm - N/A   Clear
5:55 PM 82.4 °F 86.3 °F 69.8 °F 66% 29.88 in 10.0 mi Calm Calm - N/A   Scattered Clouds
6:15 PM 82.4 °F 86.3 °F 69.8 °F 66% 29.88 in 10.0 mi Calm Calm - N/A   Scattered Clouds
6:35 PM 82.4 °F 86.3 °F 69.8 °F 66% 29.88 in 10.0 mi Calm Calm - N/A   Scattered Clouds
6:55 PM 80.6 °F 84.6 °F 71.6 °F 74% 29.88 in 10.0 mi Calm Calm - N/A Thunderstorm Scattered Clouds
7:15 PM 80.6 °F 84.6 °F 71.6 °F 74% 29.87 in 10.0 mi Calm Calm - N/A Thunderstorm Scattered Clouds
7:35 PM 80.6 °F 84.6 °F 71.6 °F 74% 29.89 in 10.0 mi South 5.8 mph - N/A Thunderstorm Mostly Cloudy
7:55 PM 78.8 °F - 69.8 °F 74% 29.89 in 10.0 mi SSW 8.1 mph 20.7 mph N/A Rain , Thunderstorm Light Thunderstorms and Rain
8:15 PM 73.4 °F - 69.8 °F 88% 29.88 in 4.0 mi South 8.1 mph - 0.12 in Rain Rain
8:35 PM 73.4 °F - 69.8 °F 88% 29.88 in 10.0 mi Calm Calm - 0.14 in Rain Rain
8:55 PM 73.4 °F - 69.8 °F 88% 29.87 in 10.0 mi Calm Calm - 0.18 in Rain Light Rain
9:15 PM 73.4 °F - 69.8 °F 88% 29.88 in 10.0 mi Calm Calm - N/A   Clear
9:35 PM 73.4 °F - 69.8 °F 88% 29.89 in 10.0 mi Calm Calm - N/A   Clear
9:55 PM 73.4 °F - 69.8 °F 88% 29.90 in 10.0 mi South 3.5 mph - N/A   Scattered Clouds
10:15 PM 73.4 °F - 69.8 °F 88% 29.90 in 10.0 mi Calm Calm - N/A Rain Light Rain
10:35 PM 73.4 °F - 69.8 °F 88% 29.89 in 10.0 mi Calm Calm - N/A   Clear
10:55 PM 73.4 °F - 69.8 °F 88% 29.89 in 10.0 mi SSE 3.5 mph - N/A   Scattered Clouds
11:15 PM 73.4 °F - 69.8 °F 88% 29.88 in 10.0 mi Calm Calm - N/A   Scattered Clouds
11:35 PM 71.6 °F - 68.0 °F 88% 29.88 in 10.0 mi Calm Calm - N/A   Scattered Clouds
11:55 PM 71.6 °F - 68.0 °F 88% 29.88 in 10.0 mi South 5.8 mph - N/A   Clear